Location: Gajan
(43.0218°N, 1.1244°E)
Time: 02:42:23
(UTC+00:00)

CZ-2C R/B - Pass Details

Date: 22 April 2021
Orbit: 639 x 705 km, 98.3° (Epoch: 15 May)

Event Time Altitude Azimuth Distance (km) Brightness Sun altitude
Rises 20:19:28 0° 19° (NNE) 2,957 7.3 -16.0°
Reaches altitude 10° 20:21:46 10° 26° (NNE) 2,040 6.3 -16.4°
Maximum altitude 20:26:02 45° 99° (E) 873 3.9 -17.0°
Enters shadow 20:27:42 31° 151° (SSE) 1,135 4.4 -17.2°
